FW3806 Weather Reports


Display with metric or nautical units.
time (UTC)temp
F
wind
direction
speed
MPH
gust
MPH
rain 1hr
in
rain 24hr
in
rain mn
in
humidity
%
barometer
mb
20200403231637 67 92 0.0 6.0 0.00 0.00 0.00 16 1008.7
20200403230117 67 77 2.0 6.0 0.00 0.00 0.00 16 1009.0
20200403224618 68 108 0.0 5.0 0.00 0.00 0.00 15 1009.2
20200403223121 67 89 2.0 5.0 0.00 0.00 0.00 15 1009.4
20200403221622 68 153 3.0 6.0 0.00 0.00 0.00 15 1009.6
20200403220110 68 83 1.0 7.0 0.00 0.00 0.00 16 1009.8
20200403214611 68 82 3.0 9.0 0.00 0.00 0.00 15 1010.0
20200403213034 68 62 1.0 9.0 0.00 0.00 0.00 15 1010.2
20200403211541 67 120 3.0 9.0 0.00 0.00 0.00 14 1010.4
20200403210055 67 128 3.0 10.0 0.00 0.00 0.00 15 1010.7
20200403204539 68 150 2.0 8.0 0.00 0.00 0.00 15 1010.8
20200403203024 68 114 6.0 11.0 0.00 0.00 0.00 15 1011.0
20200403201617 68 119 3.0 9.0 0.00 0.00 0.00 15 1011.5
20200403200022 66 150 3.0 8.0 0.00 0.00 0.00 15 1011.8
20200403194542 66 101 4.0 10.0 0.00 0.00 0.00 15 1011.9
20200403193025 66 132 4.0 8.0 0.00 0.00 0.00 15 1012.4
20200403191515 65 112 3.0 8.0 0.00 0.00 0.00 16 1012.6
20200403190044 64 113 1.0 10.0 0.00 0.00 0.00 17 1013.0
20200403184524 64 99 4.0 9.0 0.00 0.00 0.00 17 1013.2
20200403183057 62 166 2.0 8.0 0.00 0.00 0.00 18 1013.4
20200403181522 62 75 4.0 8.0 0.00 0.00 0.00 18 1013.5
20200403180020 62 122 3.0 7.0 0.00 0.00 0.00 17 1013.7
20200403174520 62 108 5.0 8.0 0.00 0.00 0.00 17 1014.0
20200403173005 61 129 2.0 8.0 0.00 0.00 0.00 19 1014.0
20200403171502 60 146 3.0 8.0 0.00 0.00 0.00 19 1014.2
20200403170119 60 117 5.0 9.0 0.00 0.00 0.00 20 1014.3
20200403164610 59 103 3.0 7.0 0.00 0.00 0.00 21 1014.4
20200403163214 59 166 3.0 6.0 0.00 0.00 0.00 24 1014.3
20200403161645 59 126 2.0 4.0 0.00 0.00 0.00 23 1014.3
20200403160203 57 117 0.0 3.0 0.00 0.00 0.00 26 1014.4
20200403154614 56 360 0.0 2.0 0.00 0.00 0.00 26 1014.4
20200403153139 55 332 0.0 3.0 0.00 0.00 0.00 28 1014.4
20200403151601 53 319 1.0 3.0 0.00 0.00 0.00 33 1014.3
20200403150051 51 259 0.0 3.0 0.00 0.00 0.00 36 1014.3
20200403144602 49 282 0.0 3.0 0.00 0.00 0.00 40 1014.2
20200403143122 47 310 3.0 5.0 0.00 0.00 0.00 44 1014.1
20200403141722 45 291 1.0 3.0 0.00 0.00 0.00 46 1014.0
20200403140143 44 291 1.0 2.0 0.00 0.00 0.00 47 1013.8
20200403134700 43 291 0.0 2.0 0.00 0.00 0.00 50 1013.5
20200403133050 43 291 0.0 1.0 0.00 0.00 0.00 49 1013.3
20200403131718 42 291 0.0 1.0 0.00 0.00 0.00 50 1013.2
20200403130102 43 291 0.0 1.0 0.00 0.00 0.00 47 1013.1
20200403124525 44 291 0.0 2.0 0.00 0.00 0.00 43 1013.0
20200403123022 45 291 0.0 3.0 0.00 0.00 0.00 42 1012.8
20200403121537 46 282 0.0 2.0 0.00 0.00 0.00 41 1012.7
20200403120051 46 282 1.0 2.0 0.00 0.00 0.00 40 1012.6
20200403114515 46 282 0.0 1.0 0.00 0.00 0.00 40 1012.6
20200403113043 47 282 0.0 2.0 0.00 0.00 0.00 39 1012.7
20200403111535 47 282 0.0 3.0 0.00 0.00 0.00 39 1012.8
20200403110013 47 282 1.0 2.0 0.00 0.00 0.00 39 1012.7
20200403104514 48 282 0.0 2.0 0.00 0.00 0.00 37 1012.6
20200403103021 49 281 1.0 2.0 0.00 0.00 0.00 37 1012.5
20200403101509 49 281 0.0 2.0 0.00 0.00 0.00 37 1012.3
20200403100111 50 281 0.0 1.0 0.00 0.00 0.00 36 1012.4
20200403094625 51 282 2.0 3.0 0.00 0.00 0.00 34 1012.2
20200403093127 51 286 3.0 5.0 0.00 0.00 0.00 34 1012.3
20200403091740 51 250 2.0 6.0 0.00 0.00 0.00 33 1012.2
20200403090156 51 289 3.0 6.0 0.00 0.00 0.00 33 1012.2
20200403084658 51 304 3.0 6.0 0.00 0.00 0.00 33 1012.3
20200403083317 50 332 2.0 6.0 0.00 0.00 0.00 35 1012.3
20200403081645 50 321 3.0 6.0 0.00 0.00 0.00 35 1012.3
20200403080114 50 320 3.0 6.0 0.00 0.00 0.00 35 1012.4
20200403074553 51 309 2.0 4.0 0.00 0.00 0.00 32 1012.5
20200403073122 52 305 1.0 3.0 0.00 0.00 0.00 31 1012.6
20200403070127 53 307 1.0 3.0 0.00 0.00 0.00 30 1012.7
20200403064539 53 298 2.0 4.0 0.00 0.00 0.00 30 1012.7
20200403063059 53 322 2.0 4.0 0.00 0.00 0.00 31 1012.6
20200403061539 53 295 1.0 3.0 0.00 0.00 0.00 30 1012.5
20200403060122 54 297 1.0 2.0 0.00 0.00 0.00 29 1012.6
20200403054643 54 229 0.0 1.0 0.00 0.00 0.00 29 1012.5
20200403053031 55 229 0.0 1.0 0.00 0.00 0.00 28 1012.4
20200403051545 55 347 0.0 2.0 0.00 0.00 0.00 25 1012.3
20200403050046 57 347 0.0 0.0 0.00 0.00 0.00 24 1012.2
20200403044635 57 347 0.0 1.0 0.00 0.00 0.00 22 1012.0
20200403041538 59 134 0.0 2.0 0.00 0.00 0.00 21 1011.8
20200403040044 59 127 1.0 4.0 0.00 0.00 0.00 20 1011.8
20200403034519 59 118 1.0 5.0 0.00 0.00 0.00 21 1011.5
20200403033047 59 105 0.0 2.0 0.00 0.00 0.00 23 1011.2
20200403031626 60 103 0.0 1.0 0.00 0.00 0.00 21 1010.8
20200403030026 62 103 0.0 2.0 0.00 0.00 0.00 19 1010.7
20200403024522 62 95 2.0 9.0 0.00 0.00 0.00 19 1010.5
20200403023038 63 102 2.0 5.0 0.00 0.00 0.00 19 1010.3
20200403021547 63 8 0.0 2.0 0.00 0.00 0.00 19 1010.3
20200403020030 65 288 0.0 3.0 0.00 0.00 0.00 17 1010.1
20200403014526 67 271 0.0 3.0 0.00 0.00 0.00 17 1010.1
20200403013012 67 289 3.0 5.0 0.00 0.00 0.00 16 1010.1
20200403011525 68 261 0.0 2.0 0.00 0.00 0.00 16 1010.1
20200403010011 67 295 0.0 3.0 0.00 0.00 0.00 16 1010.1
20200403004511 68 280 3.0 5.0 0.00 0.00 0.00 17 1010.1
20200403003032 68 345 2.0 5.0 0.00 0.00 0.00 16 1009.9
20200403001510 69 117 1.0 4.0 0.00 0.00 0.00 15 1009.9
20200403000008 68 304 0.0 4.0 0.00 0.00 0.00 16 1009.9
20200402234507 67 293 3.0 8.0 0.00 0.00 0.00 16 1010.0
20200402233007 67 302 4.0 8.0 0.00 0.00 0.00 17 1010.1